Regional Weather Roundup
Issued by NWS Kansas City/Pleasant Hill, MO

Home | Current Version | Previous Version | Text Only | Print | Product List | Glossary On
Versions: 1 2 3 4 5 6 7 8 9 10 11 12 13 14 15 16 17 18 19 20 21 22 23 24 25 26 27 28 29 30 31 32 33 34 35 36 37 38 39 40 41 42 43 44 45 46 47 48 49 50
000
ASUS43 KEAX 291510
RWREAX

WEATHER ROUNDUP FOR EASTERN KANSAS AND NORTHWEST MISSOURI
NATIONAL WEATHER SERVICE KANSAS CITY/PLEASANT HILL MO
1000 AM CDT MON MAY 29 2017

KSZ040-057-103>105-MOZ028-029-037-043-291600-
...KANSAS CITY METROPOLITAN AREA...

CITY           SKY/WX    TMP DP  RH WIND       PRES   REMARKS
K.C. INTL      MOSUNNY   71  52  50 NW10      29.98R
K.C. DOWNTOWN  SUNNY     72  52  49 NW10      29.97R
LEES SUMMIT    MOSUNNY   70  55  59 W13       29.98R
OLATHE - IXD   SUNNY     70  52  52 NW16      30.00R
OLATHE - OJC   SUNNY     70  52  52 N15G22    29.99R
LAWRENCE       SUNNY     73  53  49 NW12      30.00R

$$

MOZ001>008-011>017-020>025-030>033-038>040-044>046-053-054-291600-
...NORTHERN AND CENTRAL MISSOURI...

CITY           SKY/WX    TMP DP  RH WIND       PRES   REMARKS
ST. JOSEPH     SUNNY     71  51  49 N15       29.98R
MOSBY          SUNNY     70  50  49 NW10G17   29.97R
WARRENSBURG    MOSUNNY   73  54  49 S6        29.95R
WHITEMAN AFB   SUNNY     73  57  56 SW12      29.94R
CLINTON        MOSUNNY   72  57  60 SW8       29.98R
SEDALIA        PTSUNNY   74  60  61 SW12      29.96R
WARSAW         NOT AVBL
CHILLICOTHE      N/A     71  54  54 NW6       29.95R
KIRKSVILLE     CLOUDY    70  51  51 N7        29.94S

$$

MOZ041-047>049-056>058-063>065-088>090-097-291600-
...EASTERN AND SOUTHERN MISSOURI...

CITY           SKY/WX    TMP DP  RH WIND       PRES   REMARKS
ST. LOUIS INTL PTSUNNY   77  56  48 SW6       29.93F
SPIRIT OF STL  MOSUNNY   74  57  55 SW6       29.93S
COLUMBIA       MOSUNNY   75  56  51 SW8       29.95R
JEFFERSON CITY SUNNY     74  56  53 S7        29.95R
ROLLA          SUNNY     70  59  68 SW9       29.98R
OSAGE BEACH    SUNNY     72  59  63 SW8       30.00R
SPRINGFIELD    SUNNY     75  55  49 W13       30.03R
BRANSON        PTSUNNY   72  59  64 W5        30.07R
JOPLIN         SUNNY     76  59  55 W10       30.04R
WEST PLAINS    SUNNY     73  57  57 W9        30.05R

$$

IAZ060-094-KSZ022-034>040-054-083-096-NEZ052-066-093-291600-
...KANSAS...SOUTHEAST NEBRASKA AND IOWA...

CITY           SKY/WX    TMP DP  RH WIND       PRES   REMARKS
TOPEKA         SUNNY     71  54  54 NW8       30.01R
MANHATTAN      SUNNY     71  53  52 VRB5      30.03R
EMPORIA        SUNNY     72  51  47 NW9       30.03R
CHANUTE        SUNNY     75  52  44 NW12      30.03R
WICHITA        MOSUNNY   74  51  44 N12       30.05R
OMAHA          MOSUNNY   69  48  47 NW8       29.99R
LINCOLN        SUNNY     70  51  51 W7        30.02R
FALLS CITY     SUNNY     68  52  56 N8        30.00R
LAMONI         SUNNY     69  51  52 N9        29.96R
DES MOINES     MOSUNNY   70  43  37 NW13      29.93R

$$




USA.gov is the U.S. government's official web portal to all federal, state and local government web resources and services.